Weather in Andorra la Vella

Andorra     42°30′22″N   1°31′18″E
temp.,
°C
wind,
m/s
gust,
m/s
humid.,
%
clouds,
%
prec.,
mm/h
press.,
hPa
HPBL,
m
10 april, sat
sat1023:000ssw2499100 0.3 1020231
02:00+1ssw1299100 0.4 1018141
05:00+1ssw1299100 0.0 1017157
08:00+1s1296100 0.0 1017142
11:00+5ssw3478100 0.0 1014460
14:00+8ssw3461100 0.0 10121087
17:00+6ssw3373100 0.2 1011929
20:00+4ssw3394100 0.9 1012453
11 april, sun
sun1123:00+2ssw129892 0.1 1014165
02:00+1ssw029773 0.1 101487
05:00+1se029473 0.0 101331
08:00+1s01947 0.0 101329
11:00+7ssw346826 0.1 1011978
14:00+6ssw3476100 1.2 1011962
17:00+5s0388100 2.4 1011549
20:00−1n3597100 11.7 1017282
12 april, mon
mon1223:00−2n3594100 3.4 1021342
02:00−4nne359172 3.7 1023196
05:00−4n3491100 0.2 1022247
08:00−7n459163 0.3 1026222
11:00−2n447214 0.1 1024687
14:000n465916 0.1 10241379
17:000n456124 0.1 10241163
20:00−4n358125 0.1 1028316
13 april, tue
tue1323:00−8n469125 0.0 1034122
02:00−8nne469224 0.0 1033143
05:00−8nne46824 0.0 1032106
08:00−7nne45660 0.0 1032101
11:00+1n34451 0.0 1026677
14:00+5n234323 0.0 10241232
17:00+5n324940 0.0 10221139
20:000nne3481100 0.0 1026112
14 april, wed
wed1423:00−3nne227988 0.0 102925
02:00−3n1163100 0.0 102712
05:00−4nne225883 0.0 102711
08:00−3nne22525 0.0 102521
11:00+6wsw11315 0.0 1020828
14:00+8w133410 0.0 10181721
17:00+8nw224455 0.0 10171798
20:00+3n227792 0.1 1019172